Regional Weather Roundup
Issued by NWS

Home | Current Version | Previous Version | Graphics & Text | Print | Product List | Glossary On
Versions: 1 2 3 4 5 6 7 8 9 10 11 12 13 14 15 16 17 18 19 20 21 22 23 24 25 26 27 28 29 30 31 32 33 34 35 36 37 38 39 40 41 42 43 44 45 46 47 48 49 50
000
ASUS43 KIND 250159
RWRIN

WEATHER ROUNDUP FOR INDIANA
NATIONAL WEATHER SERVICE INDIANAPOLIS IN
1000 PM EDT TUE MAY 24 2016

NOTE: "FAIR" INDICATES FEW OR NO CLOUDS BELOW 12,000 FEET WITH NO
SIGNIFICANT WEATHER AND/OR OBSTRUCTIONS TO VISIBILITY.

* - STATION DOES NOT REPORT WEATHER SUCH AS PRECIPITATION OR FOG.

+ - STATION NOT QUALITY CONTROLLED BY THE NATIONAL WEATHER SERVICE.
    USE DATA WITH CAUTION...ESPECIALLY DEWPOINT AND RELATIVE
    HUMIDITY OBSERVATIONS.

INZ001>003-010>013-019-020-250300-
NORTHWEST INDIANA

CITY           SKY/WX    TMP DP  RH WIND       PRES   REMARKS
GARY /AIRPORT/ MOCLDY    81  61  50 S8        29.96R
RENSSELAER +   PTCLDY    77  50  38 S10       30.00R

$$

LMZ046-743>745-250300-
SOUTHERN LAKE MICHIGAN

STATION/POSITION TIME  TEMP    WIND        PRES    WAVE
                       AIR SEA DIR/SP/G            HT
                 (UTC) (F)     (DEG/KT/KT) (MB)    (FT)
BURNS HARBOR     0100   81     190/ 10/ 12 1014.6R
MICHIGAN CITY    0100   81     180/  8/  9   N/A
5NW MICH CITY    0100   69 59  210/  6/  8   N/A     1

$$

INZ004-005-014>016-021>024-250300-
NORTH CENTRAL INDIANA

CITY           SKY/WX    TMP DP  RH WIND       PRES   REMARKS
GOSHEN         CLEAR     72  47  40 S7        30.00R
SOUTH BEND     CLEAR     73  49  42 S8        30.00R

$$

INZ006>009-017-018-025>027-250300-
NORTHEAST INDIANA

CITY           SKY/WX    TMP DP  RH WIND       PRES   REMARKS
ANGOLA *+      CLEAR     66  55  68 CALM      30.02R
FORT WAYNE     PTCLDY    69  49  48 S7        30.03R

$$

INZ028-029-035-036-043>045-051>053-250300-
WEST CENTRAL INDIANA

CITY           SKY/WX    TMP DP  RH WIND       PRES   REMARKS
CRAWFORDSVL +  CLOUDY    68  54  60 S5        30.03R
GREENCASTLE +  CLOUDY    66  59  77 CALM      30.04S
LAFAYETTE      PTCLDY    73  53  49 CALM      30.01R
TERRE HAUTE    CLOUDY    72  56  57 S5        30.02S

$$

INZ030>032-037>040-046>048-054>057-064-065-250300-
CENTRAL INDIANA

CITY           SKY/WX    TMP DP  RH WIND       PRES   REMARKS
COLUMBUS       PTCLDY    72  55  56 S5        30.05S
INDIANAPOLIS   PTCLDY    71  56  58 S8        30.03R
-EAGLE CREEK   CLEAR     75  53  46 SW3       30.04R
KOKOMO *+      CLEAR     68  52  56 SW8       30.03R
SHELBYVILLE    CLEAR     73  55  53 S7        30.04S

$$

INZ033-034-041-042-049-050-058-059-250300-
EAST CENTRAL INDIANA

CITY           SKY/WX    TMP DP  RH WIND       PRES   REMARKS
MUNCIE         CLEAR     75  48  38 S3        30.05R

$$

INZ060-061-067>069-081>083-085>088-250300-
SOUTHWEST INDIANA

CITY           SKY/WX    TMP DP  RH WIND       PRES   REMARKS
EVANSVILLE     CLOUDY    75  58  55 SE5       30.02S
HUNTINGBURG *+ CLOUDY    72  57  60 SE5       30.05R

$$

INZ062-063-066-070>080-084-089>092-250300-
SOUTH CENTRAL AND SOUTHEAST INDIANA

CITY           SKY/WX    TMP DP  RH WIND       PRES   REMARKS
BLOOMINGTON    CLOUDY    72  57  59 S3        30.05S
MADISON *+     CLEAR     68  55  64 CALM      30.09R
SEYMOUR +      MOCLDY    72  59  64 S5        30.06R

$$





USA.gov is the U.S. government's official web portal to all federal, state and local government web resources and services.